EW0214 Weather Reports


Display with metric or nautical units.
time (UTC)temp
F
wind
direction
speed
MPH
gust
MPH
rain 1hr
in
rain 24hr
in
rain mn
in
humidity
%
barometer
mb
20260903013816 92 5 3.0 8.0 0.00 0.00 0.00 53 1011.1
20260903013038 92 29 3.0 6.0 0.00 0.00 0.00 53 1011.1
20260903012803 92 53 2.0 6.0 0.00 0.00 0.00 52 1011.1
20260903012025 92 27 2.0 6.0 0.00 0.00 0.00 52 1011.2
20260903011520 93 87 2.0 6.0 0.00 0.00 0.00 51 1011.2
20260903011014 93 28 3.0 8.0 0.00 0.00 0.00 51 1011.1
20260903010740 93 5 4.0 11.0 0.00 0.00 0.00 51 1011.0
20260903010002 93 39 3.0 11.0 0.00 0.00 0.00 50 1011.0
20260903005727 94 30 3.0 10.0 0.00 0.00 0.00 50 1011.0
20260903004949 94 62 1.0 10.0 0.00 0.00 0.00 49 1010.9
20260903004444 95 209 0.0 0.0 0.00 0.00 0.00 49 1011.0
20260903004206 95 209 0.0 0.0 0.00 0.00 0.00 47 1010.9
20260903004039 95 209 0.0 0.0 0.00 0.00 0.00 48 1010.9
20260903002926 96 209 0.0 1.0 0.00 0.00 0.00 47 1011.0
20260903002420 96 209 0.0 2.0 0.00 0.00 0.00 47 1010.9
20260903001914 96 209 0.0 2.0 0.00 0.00 0.00 47 1011.0
20260903001411 96 209 0.0 1.0 0.00 0.00 0.00 48 1011.0
20260903001405 96 209 0.0 1.0 0.00 0.00 0.00 47 1011.0
20260903000356 96 209 0.0 1.0 0.00 0.00 0.00 45 1011.0
20260903000120 96 209 0.0 3.0 0.00 0.00 0.00 45 1011.0
20260902235344 96 209 1.0 3.0 0.00 0.00 0.00 45 1011.1
20260902234838 96 209 1.0 3.0 0.00 0.00 0.00 44 1011.1
20260902234332 97 209 0.0 3.0 0.00 0.00 0.00 45 1011.0
20260902233826 97 186 0.0 1.0 0.00 0.00 0.00 46 1011.1
20260902233320 97 186 0.0 2.0 0.00 0.00 0.00 45 1011.0
20260902232814 97 186 0.0 2.0 0.00 0.00 0.00 45 1011.1
20260902232539 97 186 1.0 3.0 0.00 0.00 0.00 45 1011.1
20260902232032 97 186 1.0 3.0 0.00 0.00 0.00 44 1011.1
20260902231528 97 186 0.0 3.0 0.00 0.00 0.00 45 1011.1
20260902230756 97 180 1.0 4.0 0.00 0.00 0.00 46 1011.0
20260902230253 97 180 1.0 4.0 0.00 0.00 0.00 44 1011.0
20260902230024 97 184 1.0 3.0 0.00 0.00 0.00 45 1010.9
20260902225250 97 184 1.0 3.0 0.00 0.00 0.00 45 1011.0
20260902225020 97 182 1.0 2.0 0.00 0.00 0.00 46 1011.0
20260902224248 97 182 1.0 6.0 0.00 0.00 0.00 48 1011.0
20260902223756 97 184 1.0 4.0 0.00 0.00 0.00 46 1011.0
20260902223750 97 175 1.0 6.0 0.00 0.00 0.00 47 1011.0
20260902223249 97 185 1.0 4.0 0.00 0.00 0.00 46 1011.0
20260902222248 97 186 1.0 4.0 0.00 0.00 0.00 46 1011.1
20260902221748 97 187 1.0 3.0 0.00 0.00 0.00 46 1011.1
20260902221250 97 178 1.0 3.0 0.00 0.00 0.00 47 1011.2
20260902220746 97 175 1.0 3.0 0.00 0.00 0.00 47 1011.3
20260902220245 97 174 0.0 3.0 0.00 0.00 0.00 47 1011.3
20260902215744 98 174 0.0 2.0 0.00 0.00 0.00 48 1011.4
20260902215249 98 173 1.0 3.0 0.00 0.00 0.00 48 1011.2
20260902215245 98 174 0.0 2.0 0.00 0.00 0.00 48 1011.3
20260902214246 98 173 0.0 3.0 0.00 0.00 0.00 48 1011.3
20260902214015 98 170 0.0 1.0 0.00 0.00 0.00 48 1011.4
20260902213244 98 170 0.0 1.0 0.00 0.00 0.00 47 1011.4
20260902212746 98 170 0.0 0.0 0.00 0.00 0.00 47 1011.5
20260902212522 98 170 0.0 2.0 0.00 0.00 0.00 46 1011.6
20260902212245 98 170 0.0 0.0 0.00 0.00 0.00 46 1011.5
20260902211245 98 170 0.0 2.0 0.00 0.00 0.00 46 1011.8
20260902210744 98 170 0.0 1.0 0.00 0.00 0.00 47 1011.7
20260902210244 98 170 0.0 2.0 0.00 0.00 0.00 47 1011.7
20260902205745 98 170 0.0 2.0 0.00 0.00 0.00 46 1011.8
20260902205245 99 170 0.0 2.0 0.00 0.00 0.00 46 1011.9
20260902205015 98 170 1.0 5.0 0.00 0.00 0.00 45 1011.8
20260902204519 98 170 1.0 5.0 0.00 0.00 0.00 44 1012.0
20260902203738 98 164 1.0 5.0 0.00 0.00 0.00 45 1012.1
20260902203232 98 161 2.0 5.0 0.00 0.00 0.00 44 1012.2
20260902202727 98 165 2.0 5.0 0.00 0.00 0.00 44 1012.3
20260902202220 98 165 1.0 5.0 0.00 0.00 0.00 46 1012.3
20260902201715 97 165 0.0 4.0 0.00 0.00 0.00 49 1012.3
20260902201710 97 154 0.0 0.0 0.00 0.00 0.00 49 1012.4
20260902200703 97 154 0.0 0.0 0.00 0.00 0.00 48 1012.4
20260902200157 98 154 0.0 3.0 0.00 0.00 0.00 47 1012.4
20260902195651 98 154 0.0 3.0 0.00 0.00 0.00 47 1012.6
20260902195145 98 15 0.0 2.0 0.00 0.00 0.00 47 1012.6
20260902194639 98 15 1.0 2.0 0.00 0.00 0.00 47 1012.8
20260902194133 99 15 0.0 2.0 0.00 0.00 0.00 46 1012.8
20260902193627 99 15 0.0 2.0 0.00 0.00 0.00 45 1012.8
20260902193121 99 12 0.0 1.0 0.00 0.00 0.00 46 1012.9
20260902192615 99 13 1.0 4.0 0.00 0.00 0.00 46 1013.1
20260902192108 100 12 1.0 4.0 0.00 0.00 0.00 45 1013.1
20260902191833 100 12 1.0 3.0 0.00 0.00 0.00 46 1013.2
20260902191057 100 12 0.0 1.0 0.00 0.00 0.00 45 1013.2
20260902190823 100 13 0.0 1.0 0.00 0.00 0.00 43 1013.3
20260902190044 101 13 0.0 2.0 0.00 0.00 0.00 43 1013.4
20260902185537 101 13 0.0 2.0 0.00 0.00 0.00 44 1013.3
20260902185031 101 13 0.0 2.0 0.00 0.00 0.00 43 1013.5
20260902184528 101 13 1.0 5.0 0.00 0.00 0.00 42 1013.6
20260902184249 101 13 1.0 5.0 0.00 0.00 0.00 44 1013.6
20260902183513 101 329 1.0 3.0 0.00 0.00 0.00 42 1013.7
20260902183007 100 329 1.0 3.0 0.00 0.00 0.00 43 1013.8
20260902182501 100 330 0.0 2.0 0.00 0.00 0.00 46 1013.9
20260902181955 100 331 1.0 6.0 0.00 0.00 0.00 44 1014.0
20260902181448 100 331 2.0 6.0 0.00 0.00 0.00 46 1014.0
20260902180942 100 191 2.0 5.0 0.00 0.00 0.00 45 1014.1
20260902180438 99 190 2.0 6.0 0.00 0.00 0.00 45 1014.2
20260902180432 99 237 1.0 6.0 0.00 0.00 0.00 46 1014.4
20260902175425 98 342 1.0 6.0 0.00 0.00 0.00 46 1014.5
20260902174918 98 355 1.0 6.0 0.00 0.00 0.00 47 1014.6
20260902174413 98 309 1.0 4.0 0.00 0.00 0.00 46 1014.7
20260902173906 97 309 2.0 5.0 0.00 0.00 0.00 47 1014.9
20260902173401 97 173 1.0 5.0 0.00 0.00 0.00 48 1014.9
20260902172854 96 10 1.0 4.0 0.00 0.00 0.00 50 1015.0
20260902172349 96 186 1.0 4.0 0.00 0.00 0.00 51 1015.2
20260902171843 96 186 1.0 3.0 0.00 0.00 0.00 49 1015.3
20260902171337 96 182 1.0 3.0 0.00 0.00 0.00 50 1015.4
20260902170831 96 182 1.0 6.0 0.00 0.00 0.00 50 1015.4
20260902170555 95 169 1.0 6.0 0.00 0.00 0.00 49 1015.4
20260902170051 95 154 1.0 6.0 0.00 0.00 0.00 51 1015.5
20260902165313 95 59 2.0 7.0 0.00 0.00 0.00 52 1015.4
20260902164807 94 173 2.0 7.0 0.00 0.00 0.00 52 1015.5
20260902164300 94 203 1.0 4.0 0.00 0.00 0.00 53 1015.5
20260902164025 93 205 1.0 3.0 0.00 0.00 0.00 54 1015.7
20260902163249 93 217 1.0 3.0 0.00 0.00 0.00 55 1015.6
20260902162742 92 240 1.0 4.0 0.00 0.00 0.00 55 1015.7
20260902162237 92 239 1.0 4.0 0.00 0.00 0.00 55 1015.8
20260902161731 92 332 1.0 2.0 0.00 0.00 0.00 58 1015.8
20260902161225 91 332 1.0 3.0 0.00 0.00 0.00 57 1015.8
20260902160719 91 332 1.0 3.0 0.00 0.00 0.00 59 1015.8
20260902160216 90 333 0.0 2.0 0.00 0.00 0.00 60 1015.8
20260902160211 90 333 0.0 3.0 0.00 0.00 0.00 60 1015.8
20260902155200 89 333 1.0 5.0 0.00 0.00 0.00 61 1015.8
20260902154655 89 333 1.0 5.0 0.00 0.00 0.00 63 1015.8
20260902154148 88 188 1.0 3.0 0.00 0.00 0.00 64 1015.9
20260902153915 88 187 1.0 5.0 0.00 0.00 0.00 65 1015.8
20260902153137 87 188 1.0 5.0 0.00 0.00 0.00 66 1015.9
20260902152630 87 191 1.0 3.0 0.00 0.00 0.00 67 1015.9
20260902152125 86 190 1.0 3.0 0.00 0.00 0.00 69 1015.9
20260902151619 85 277 1.0 3.0 0.00 0.00 0.00 71 1015.8
20260902151113 84 288 0.0 3.0 0.00 0.00 0.00 73 1015.9
20260902150607 84 228 0.0 3.0 0.00 0.00 0.00 74 1015.8
20260902145555 82 229 0.0 3.0 0.00 0.00 0.00 77 1015.8
20260902145049 82 232 0.0 0.0 0.00 0.00 0.00 78 1015.9
20260902144543 81 232 0.0 0.0 0.00 0.00 0.00 79 1015.9
20260902144036 81 232 1.0 4.0 0.00 0.00 0.00 79 1015.9
20260902143531 80 232 1.0 4.0 0.00 0.00 0.00 80 1016.0
20260902143025 80 172 0.0 2.0 0.00 0.00 0.00 80 1016.0
20260902142520 80 171 0.0 0.0 0.00 0.00 0.00 81 1016.1
20260902142021 79 171 0.0 0.0 0.00 0.00 0.00 81 1016.1
20260902141519 79 171 0.0 0.0 0.00 0.00 0.00 81 1016.1
20260902141021 79 171 0.0 0.0 0.00 0.00 0.00 82 1016.1
20260902140520 78 171 0.0 0.0 0.00 0.00 0.00 82 1016.1
20260902140019 78 170 0.0 0.0 0.00 0.00 0.00 82 1016.1
20260902135520 78 170 0.0 0.0 0.00 0.00 0.00 82 1016.2
20260902135019 77 170 0.0 0.0 0.00 0.00 0.00 82 1016.1
20260902134751 77 170 0.0 0.0 0.00 0.00 0.00 82 1016.1
20260902134016 77 170 0.0 0.0 0.00 0.00 0.00 83 1016.0
20260902133515 77 170 0.0 0.0 0.00 0.00 0.00 83 1016.0
20260902133016 76 170 0.0 0.0 0.00 0.00 0.00 83 1015.9
20260902132516 76 170 0.0 0.0 0.00 0.00 0.00 82 1015.9
20260902132016 76 170 0.0 0.0 0.00 0.00 0.00 82 1015.8
20260902131746 76 170 0.0 0.0 0.00 0.00 0.00 82 1015.7
20260902131017 76 170 0.0 0.0 0.00 0.00 0.00 82 1015.6
20260902130515 76 170 0.0 0.0 0.00 0.00 0.00 82 1015.7
20260902130017 76 170 0.0 0.0 0.00 0.00 0.00 82 1015.6
20260902125741 76 170 0.0 0.0 0.00 0.00 0.00 82 1015.6
20260902125234 76 170 0.0 0.0 0.00 0.00 0.00 82 1015.6
20260902124457 76 170 0.0 0.0 0.00 0.00 0.00 82 1015.5
20260902123951 76 169 0.0 0.0 0.00 0.00 0.00 81 1015.5
20260902123446 76 170 0.0 0.0 0.00 0.00 0.00 81 1015.4
20260902122940 76 170 0.0 0.0 0.00 0.00 0.00 81 1015.5
20260902122434 76 170 0.0 0.0 0.00 0.00 0.00 81 1015.4
20260902121928 76 170 0.0 0.0 0.00 0.00 0.00 81 1015.3
20260902121652 76 170 0.0 0.0 0.00 0.00 0.00 81 1015.3
20260902120916 76 170 0.0 0.0 0.00 0.00 0.00 81 1015.2
20260902120647 76 170 0.0 0.0 0.00 0.00 0.00 80 1015.3
20260902115917 76 170 0.0 0.0 0.00 0.00 0.00 80 1015.3
20260902115647 76 169 0.0 0.0 0.00 0.00 0.00 81 1015.2
20260902114915 76 170 0.0 0.0 0.00 0.00 0.00 80 1015.2
20260902114420 77 169 0.0 0.0 0.00 0.00 0.00 80 1015.1
20260902114416 76 169 0.0 0.0 0.00 0.00 0.00 80 1015.2
20260902113415 77 169 0.0 0.0 0.00 0.00 0.00 80 1015.2
20260902112914 77 169 0.0 0.0 0.00 0.00 0.00 80 1015.1
20260902112411 77 169 0.0 0.0 0.00 0.00 0.00 80 1015.1
20260902111911 77 170 0.0 0.0 0.00 0.00 0.00 79 1015.1
20260902111411 77 169 0.0 0.0 0.00 0.00 0.00 79 1015.1
20260902110910 77 169 0.0 0.0 0.00 0.00 0.00 79 1015.1
20260902110640 77 169 0.0 0.0 0.00 0.00 0.00 79 1015.1
20260902105905 78 169 0.0 0.0 0.00 0.00 0.00 79 1015.1
20260902105404 78 170 0.0 0.0 0.00 0.00 0.00 79 1015.1
20260902105132 78 169 0.0 0.0 0.00 0.00 0.00 78 1015.1
20260902104401 78 170 0.0 0.0 0.00 0.00 0.00 78 1015.1
20260902103900 78 170 0.0 0.0 0.00 0.00 0.00 77 1015.0
20260902103400 78 169 0.0 0.0 0.00 0.00 0.00 77 1014.9
20260902102854 78 169 0.0 0.0 0.00 0.00 0.00 77 1015.0
20260902102348 78 170 0.0 0.0 0.00 0.00 0.00 77 1015.0
20260902101842 78 169 0.0 0.0 0.00 0.00 0.00 77 1015.0
20260902101336 79 169 0.0 0.0 0.00 0.00 0.00 77 1015.0
20260902100831 79 169 0.0 0.0 0.00 0.00 0.00 77 1015.0
20260902100826 79 169 0.0 0.0 0.00 0.00 0.00 77 1015.0
20260902095818 79 169 0.0 0.0 0.00 0.00 0.00 76 1014.9
20260902095312 79 169 0.0 0.0 0.00 0.00 0.00 76 1014.8
20260902094806 79 169 0.0 0.0 0.00 0.00 0.00 76 1014.8
20260902094259 79 169 0.0 0.0 0.00 0.00 0.00 76 1014.9
20260902093754 79 169 0.0 0.0 0.00 0.00 0.00 76 1014.9
20260902093248 79 169 0.0 0.0 0.00 0.00 0.00 76 1014.9
20260902093014 79 169 0.0 0.0 0.00 0.00 0.00 76 1014.9
20260902092235 79 169 0.0 0.0 0.00 0.00 0.00 76 1014.9
20260902092000 79 169 0.0 0.0 0.00 0.00 0.00 76 1015.0
20260902091224 80 169 0.0 0.0 0.00 0.00 0.00 76 1015.0
20260902090717 80 169 0.0 0.0 0.00 0.00 0.00 76 1015.0
20260902090212 79 169 0.0 2.0 0.00 0.00 0.00 76 1015.1
20260902085937 79 169 0.0 2.0 0.00 0.00 0.00 75 1015.1
20260902085200 79 169 1.0 2.0 0.00 0.00 0.00 75 1015.1
20260902084654 80 169 1.0 5.0 0.00 0.00 0.00 75 1015.1
20260902084148 80 169 1.0 5.0 0.00 0.00 0.00 75 1015.1
20260902083912 80 171 1.0 4.0 0.00 0.00 0.00 75 1015.1
20260902083136 80 171 0.0 4.0 0.00 0.00 0.00 75 1015.1
20260902082630 80 171 0.0 0.0 0.00 0.00 0.00 74 1015.2
20260902082124 80 171 0.0 2.0 0.00 0.00 0.00 74 1015.2
20260902081618 80 172 0.0 2.0 0.00 0.00 0.00 74 1015.2
20260902081112 80 172 0.0 0.0 0.00 0.00 0.00 74 1015.3
20260902080606 81 172 0.0 0.0 0.00 0.00 0.00 73 1015.2
20260902075554 81 172 0.0 0.0 0.00 0.00 0.00 74 1015.2
20260902075048 81 172 0.0 2.0 0.00 0.00 0.00 74 1015.2
20260902074542 81 172 1.0 2.0 0.00 0.00 0.00 74 1015.3
20260902074036 81 172 1.0 2.0 0.00 0.00 0.00 74 1015.4
20260902073529 81 172 0.0 2.0 0.00 0.00 0.00 73 1015.4
20260902073024 81 172 0.0 2.0 0.00 0.00 0.00 72 1015.4
20260902072518 81 172 0.0 2.0 0.00 0.00 0.00 72 1015.3
20260902072012 81 172 0.0 2.0 0.00 0.00 0.00 72 1015.4
20260902071506 82 172 1.0 2.0 0.00 0.00 0.00 72 1015.4
20260902070959 82 172 1.0 2.0 0.00 0.00 0.00 72 1015.3
20260902070453 82 172 1.0 5.0 0.00 0.00 0.00 72 1015.3
20260902065948 82 172 0.0 5.0 0.00 0.00 0.00 72 1015.3
20260902065713 82 173 1.0 3.0 0.00 0.00 0.00 72 1015.3
20260902064935 82 173 1.0 3.0 0.00 0.00 0.00 71 1015.3
20260902064701 82 173 1.0 3.0 0.00 0.00 0.00 71 1015.3
20260902064157 82 173 1.0 5.0 0.00 0.00 0.00 71 1015.2
20260902063424 83 173 1.0 5.0 0.00 0.00 0.00 71 1015.2
20260902063158 83 173 0.0 5.0 0.00 0.00 0.00 71 1015.2
20260902062425 83 171 0.0 4.0 0.00 0.00 0.00 71 1015.3
20260902061922 83 171 1.0 4.0 0.00 0.00 0.00 71 1015.2
20260902061424 83 171 1.0 4.0 0.00 0.00 0.00 71 1015.2
20260902061154 84 171 1.0 4.0 0.00 0.00 0.00 71 1015.2
20260902060423 83 175 2.0 4.0 0.00 0.00 0.00 69 1015.4
20260902055923 84 178 2.0 5.0 0.00 0.00 0.00 69 1015.4
20260902055424 84 177 2.0 5.0 0.00 0.00 0.00 69 1015.3
20260902055153 84 170 1.0 5.0 0.00 0.00 0.00 68 1015.2
20260902054424 84 175 2.0 5.0 0.00 0.00 0.00 68 1015.2
20260902054153 84 184 2.0 6.0 0.00 0.00 0.00 68 1015.1
20260902053424 84 184 2.0 6.0 0.00 0.00 0.00 68 1015.2
20260902052922 84 174 2.0 6.0 0.00 0.00 0.00 68 1015.1
20260902052656 85 179 2.0 6.0 0.00 0.00 0.00 67 1015.1
20260902052153 85 185 2.0 7.0 0.00 0.00 0.00 67 1015.1
20260902051422 85 190 3.0 7.0 0.00 0.00 0.00 67 1015.2
20260902050923 85 197 3.0 6.0 0.00 0.00 0.00 67 1015.2
20260902050423 85 166 3.0 5.0 0.00 0.00 0.00 67 1015.3
20260902045926 85 167 3.0 6.0 0.00 0.00 0.00 66 1015.4
20260902045920 85 167 3.0 6.0 0.00 0.00 0.00 66 1015.2
20260902045915 86 173 2.0 7.0 0.00 0.00 0.00 66 1015.3
20260902040824 87 145 3.0 8.0 0.00 0.00 0.00 63 1015.2
20260902040318 87 132 3.0 7.0 0.00 0.00 0.00 63 1015.1
20260902035812 87 157 3.0 7.0 0.00 0.00 0.00 62 1015.2
20260902035312 87 150 3.0 7.0 0.00 0.00 0.00 62 1015.0
20260902034812 87 135 2.0 5.0 0.00 0.00 0.00 61 1014.9
20260902034311 88 138 1.0 4.0 0.00 0.00 0.00 60 1014.9
20260902033811 88 138 0.0 1.0 0.00 0.00 0.00 60 1014.8
20260902033312 88 138 1.0 2.0 0.00 0.00 0.00 60 1014.9
20260902033042 88 138 1.0 2.0 0.00 0.00 0.00 60 1014.8
20260902032309 88 138 1.0 3.0 0.00 0.00 0.00 60 1014.6
20260902031810 88 138 1.0 3.0 0.00 0.00 0.00 59 1014.7
20260902031309 88 138 2.0 3.0 0.00 0.00 0.00 59 1014.7
20260902030808 89 138 2.0 4.0 0.00 0.00 0.00 59 1014.5
20260902030308 89 131 2.0 4.0 0.00 0.00 0.00 59 1014.4
20260902025809 89 133 1.0 4.0 0.00 0.00 0.00 58 1014.3
20260902025308 89 134 1.0 4.0 0.00 0.00 0.00 58 1014.2
20260902024806 89 135 1.0 3.0 0.00 0.00 0.00 57 1014.0
20260902024535 89 135 2.0 4.0 0.00 0.00 0.00 57 1014.0
20260902023802 89 135 2.0 4.0 0.00 0.00 0.00 57 1013.8
20260902023531 89 135 2.0 3.0 0.00 0.00 0.00 57 1013.7
20260902022800 90 136 2.0 4.0 0.00 0.00 0.00 56 1013.7
20260902022256 90 136 2.0 7.0 0.00 0.00 0.00 56 1013.6
20260902021755 90 138 2.0 7.0 0.00 0.00 0.00 56 1013.5
20260902021255 90 143 3.0 7.0 0.00 0.00 0.00 55 1013.4
20260902020755 90 142 3.0 7.0 0.00 0.00 0.00 55 1013.4
20260902020255 91 147 3.0 7.0 0.00 0.00 0.00 55 1013.4
20260902015756 91 139 3.0 7.0 0.00 0.00 0.00 54 1013.3
20260902015255 91 153 4.0 8.0 0.00 0.00 0.00 54 1013.3
20260902014754 91 148 4.0 12.0 0.00 0.00 0.00 54 1013.3
20260902014527 91 142 4.0 12.0 0.00 0.00 0.00 53 1013.3